Regional Weather Roundup
Issued by NWS

Home | Current Version | Previous Version | Graphics & Text | Print | Product List | Glossary On
Versions: 1 2 3 4 5 6 7 8 9 10 11 12 13 14 15 16 17 18 19 20 21 22 23 24 25 26 27 28 29 30 31 32 33 34 35 36 37 38 39 40 41 42 43 44 45 46 47 48 49 50
000
ASUS44 KMEG 191200
RWRTN
TENNESSEE HOURLY STATE WEATHER ROUNDUP
NATIONAL WEATHER SERVICE MEMPHIS TN
700 AM CDT SAT APR 19 2014

TNZ002-004-019-021-049-052-054-088>092-191300-
WEST TENNESSEE

CITY           SKY/WX    TMP DP  RH WIND       PRES   REMARKS
MEMPHIS INTL   PTCLDY    53  50  89 CALM      30.20R
NWS MEMPHIS      N/A     50 N/A N/A MISG        N/A
JACKSON        CLEAR     46  44  93 CALM      30.20R FOG
DYERSBURG      CLEAR     54  39  58 NE3       30.22S
UNION CITY     CLEAR     45  45 100 CALM      30.21R
LEXINGTON      CLEAR     46  45  93 NE3       30.19R
$$

TNZ008-025-027-028-033-062-065-066-191300-
NORTH MIDDLE TENNESSEE

CITY           SKY/WX    TMP DP  RH WIND       PRES   REMARKS
NASHVILLE      PTCLDY    52  45  77 N5        30.19R
CLARKSVILLE    CLEAR     48  42  80 CALM      30.22R
CROSSVILLE     PTSUNNY   53  36  52 NE9       30.19R
$$

TNZ061-075-076-078-094-096-097-191300-
SOUTH MIDDLE TENNESSEE

CITY           SKY/WX    TMP DP  RH WIND       PRES   REMARKS
TULLAHOMA      CLEAR     50  43  76 CALM      30.17S
WINCHESTER     CLEAR     46  45  93 CALM      30.16S
COLUMBIA       CLEAR     43  43 100 CALM      30.17R
$$

TNZ017-018-042-046-047-191300-
NORTHEAST TENNESSEE

CITY           SKY/WX    TMP DP  RH WIND       PRES   REMARKS
TRI CITIES     CLOUDY    51  37  58 S3        30.17R
ELIZABETHTON   CLOUDY    48  41  76 CALM      30.16R
$$

TNZ012-013-036-069-073-074-191300-
CENTRAL EAST TENNESSEE

CITY           SKY/WX    TMP DP  RH WIND       PRES   REMARKS
KNOXVILLE      CLOUDY    52  41  66 N5        30.15R
OAK RIDGE      CLOUDY    51  43  74 E3        30.17R
$$

TNZ083-085-099-191300-
SOUTHEAST TENNESSEE

CITY           SKY/WX    TMP DP  RH WIND       PRES   REMARKS
CHATTANOOGA    CLOUDY    56  48  74 CALM      30.13S
$$

SKY/WX REPORTED AS FAIR MEANS FEW OR NO CLOUDS BELOW
12 THOUSAND FEET.




USA.gov is the U.S. government's official web portal to all federal, state and local government web resources and services.